GW3294 Weather Reports


Display with metric or nautical units.
time (UTC)temp
F
wind
direction
speed
MPH
gust
MPH
rain 1hr
in
rain 24hr
in
rain mn
in
humidity
%
barometer
mb
20260901201815 106 197 2.0 4.0 0.00 0.00 0.00 35 1018.1
20260901201314 109 248 2.0 4.0 0.00 0.00 0.00 38 1018.3
20260901200809 108 201 3.0 6.0 0.00 0.00 0.00 34 1018.3
20260901200304 108 265 0.0 2.0 0.00 0.00 0.00 36 1018.4
20260901195801 105 31 2.0 3.0 0.00 0.00 0.00 36 1018.4
20260901195255 107 327 0.0 3.0 0.00 0.00 0.00 37 1018.4
20260901194751 107 233 2.0 3.0 0.00 0.00 0.00 36 1018.6
20260901194246 104 155 3.0 5.0 0.00 0.00 0.00 39 1018.4
20260901193742 105 208 2.0 4.0 0.00 0.00 0.00 35 1018.7
20260901193240 104 70 1.0 3.0 0.00 0.00 0.00 36 1018.5
20260901192736 105 198 1.0 4.0 0.00 0.00 0.00 34 1018.9
20260901192231 103 138 3.0 5.0 0.00 0.00 0.00 39 1018.8
20260901191727 104 223 2.0 4.0 0.00 0.00 0.00 38 1019.0
20260901191223 102 254 2.0 5.0 0.00 0.00 0.00 38 1018.9
20260901190718 104 254 2.0 5.0 0.00 0.00 0.00 36 1019.1
20260901190218 102 264 2.0 5.0 0.00 0.00 0.00 38 1019.0
20260901185717 105 163 2.0 3.0 0.00 0.00 0.00 36 1019.0
20260901185215 104 251 2.0 4.0 0.00 0.00 0.00 36 1019.0
20260901184711 102 178 0.0 4.0 0.00 0.00 0.00 37 1019.2
20260901184206 102 251 1.0 5.0 0.00 0.00 0.00 42 1019.3
20260901183702 101 196 1.0 3.0 0.00 0.00 0.00 45 1019.2
20260901183201 103 132 0.0 4.0 0.00 0.00 0.00 43 1019.3
20260901182657 101 239 2.0 6.0 0.00 0.00 0.00 44 1019.4
20260901182150 102 256 3.0 4.0 0.00 0.00 0.00 43 1019.5
20260901181645 100 260 2.0 6.0 0.00 0.00 0.00 47 1019.6
20260901181139 101 255 2.0 4.0 0.00 0.00 0.00 47 1019.4
20260901180634 99 112 0.0 2.0 0.00 0.00 0.00 47 1019.6
20260901180128 100 198 1.0 4.0 0.00 0.00 0.00 47 1019.6
20260901175627 101 243 2.0 3.0 0.00 0.00 0.00 47 1019.7
20260901175122 100 192 0.0 4.0 0.00 0.00 0.00 47 1019.7
20260901174617 100 244 2.0 4.0 0.00 0.00 0.00 48 1019.7
20260901174114 101 190 3.0 4.0 0.00 0.00 0.00 47 1020.0
20260901173614 100 306 1.0 3.0 0.00 0.00 0.00 52 1019.9
20260901173109 98 208 0.0 5.0 0.00 0.00 0.00 53 1019.8
20260901172605 99 249 3.0 4.0 0.00 0.00 0.00 50 1019.9
20260901172103 100 231 1.0 4.0 0.00 0.00 0.00 49 1020.1
20260901171602 100 182 2.0 6.0 0.00 0.00 0.00 48 1020.1
20260901171101 98 260 2.0 3.0 0.00 0.00 0.00 50 1020.1
20260901170555 97 181 3.0 5.0 0.00 0.00 0.00 50 1020.3
20260901170050 99 143 1.0 3.0 0.00 0.00 0.00 50 1020.2
20260901165544 98 218 0.0 3.0 0.00 0.00 0.00 53 1020.2
20260901165040 97 241 2.0 3.0 0.00 0.00 0.00 52 1020.4
20260901164535 96 214 1.0 4.0 0.00 0.00 0.00 53 1020.3
20260901164030 96 233 1.0 4.0 0.00 0.00 0.00 53 1020.5
20260901163526 95 147 3.0 4.0 0.00 0.00 0.00 53 1020.3
20260901163025 95 251 3.0 5.0 0.00 0.00 0.00 54 1020.4
20260901162520 94 265 0.0 9.0 0.00 0.00 0.00 57 1020.6
20260901162019 93 284 3.0 4.0 0.00 0.00 0.00 57 1020.5
20260901161518 94 134 3.0 5.0 0.00 0.00 0.00 55 1020.6
20260901161018 93 272 3.0 7.0 0.00 0.00 0.00 56 1020.6
20260901160515 92 301 1.0 5.0 0.00 0.00 0.00 58 1020.4
20260901160014 92 218 5.0 7.0 0.00 0.00 0.00 57 1020.6
20260901155508 91 284 3.0 6.0 0.00 0.00 0.00 59 1020.5
20260901155004 91 309 2.0 4.0 0.00 0.00 0.00 60 1020.4
20260901154504 91 152 2.0 4.0 0.00 0.00 0.00 61 1020.7
20260901153958 90 193 1.0 6.0 0.00 0.00 0.00 60 1020.7
20260901153453 90 309 2.0 5.0 0.00 0.00 0.00 61 1020.8
20260901152952 90 264 3.0 4.0 0.00 0.00 0.00 64 1020.5
20260901152447 90 167 3.0 6.0 0.00 0.00 0.00 60 1020.7
20260901151947 90 207 2.0 5.0 0.00 0.00 0.00 63 1020.6
20260901151442 89 279 2.0 3.0 0.00 0.00 0.00 63 1020.8
20260901150941 89 139 4.0 7.0 0.00 0.00 0.00 63 1020.6
20260901150439 88 161 3.0 7.0 0.00 0.00 0.00 65 1020.6
20260901145937 87 286 0.0 4.0 0.00 0.00 0.00 66 1020.5
20260901145431 87 205 2.0 7.0 0.00 0.00 0.00 65 1020.8
20260901144926 87 271 3.0 4.0 0.00 0.00 0.00 67 1020.2
20260901144421 86 299 0.0 5.0 0.00 0.00 0.00 68 1020.7
20260901143917 86 255 1.0 4.0 0.00 0.00 0.00 67 1020.5
20260901143413 87 168 1.0 3.0 0.00 0.00 0.00 67 1020.7
20260901142909 86 263 2.0 7.0 0.00 0.00 0.00 68 1020.6
20260901142408 86 249 0.0 3.0 0.00 0.00 0.00 70 1020.6
20260901141904 85 158 3.0 5.0 0.00 0.00 0.00 69 1020.7
20260901141358 84 232 1.0 3.0 0.00 0.00 0.00 72 1020.5
20260901140857 83 255 0.0 3.0 0.00 0.00 0.00 72 1020.6
20260901140356 82 240 0.0 3.0 0.00 0.00 0.00 74 1020.6
20260901135850 82 96 0.0 3.0 0.00 0.00 0.00 74 1020.7
20260901135346 82 262 1.0 4.0 0.00 0.00 0.00 76 1020.7
20260901134841 82 210 0.0 3.0 0.00 0.00 0.00 75 1020.8
20260901134337 81 346 1.0 2.0 0.00 0.00 0.00 77 1020.7
20260901133831 80 325 0.0 2.0 0.00 0.00 0.00 77 1020.8
20260901133330 80 163 2.0 3.0 0.00 0.00 0.00 78 1020.7
20260901132829 80 154 0.0 4.0 0.00 0.00 0.00 78 1020.9
20260901132323 79 127 0.0 2.0 0.00 0.00 0.00 81 1020.6
20260901131818 78 195 0.0 3.0 0.00 0.00 0.00 80 1020.6
20260901131317 77 193 0.0 3.0 0.00 0.00 0.00 83 1020.6
20260901130812 77 224 0.0 1.0 0.00 0.00 0.00 86 1020.7
20260901130307 75 221 1.0 2.0 0.00 0.00 0.00 86 1020.6
20260901125804 75 135 0.0 1.0 0.00 0.00 0.00 88 1020.6
20260901125259 75 186 0.0 2.0 0.00 0.00 0.00 89 1020.5
20260901124754 73 77 0.0 1.0 0.00 0.00 0.00 93 1020.4
20260901124249 73 129 0.0 1.0 0.00 0.00 0.00 93 1020.3
20260901123748 73 140 0.0 2.0 0.00 0.00 0.00 94 1020.3
20260901123243 72 119 0.0 2.0 0.00 0.00 0.00 94 1020.3
20260901122742 72 92 1.0 2.0 0.00 0.00 0.00 95 1020.3
20260901122237 72 160 1.0 2.0 0.00 0.00 0.00 95 1020.3
20260901121731 71 142 0.0 1.0 0.00 0.00 0.00 95 1020.4
20260901121226 71 113 0.0 2.0 0.00 0.00 0.00 95 1020.4
20260901120725 71 57 0.0 2.0 0.00 0.00 0.00 95 1020.1
20260901120220 71 89 0.0 2.0 0.00 0.00 0.00 94 1020.1
20260901115716 71 135 0.0 2.0 0.00 0.00 0.00 95 1020.1
20260901115212 71 140 0.0 2.0 0.00 0.00 0.00 94 1020.0
20260901114709 71 107 1.0 2.0 0.00 0.00 0.00 94 1020.0
20260901114208 71 108 0.0 2.0 0.00 0.00 0.00 95 1019.7
20260901113702 71 106 1.0 2.0 0.00 0.00 0.00 95 1019.8
20260901113157 71 109 2.0 2.0 0.00 0.00 0.00 95 1019.8
20260901112656 71 101 1.0 3.0 0.00 0.00 0.00 95 1019.9
20260901112150 71 141 0.0 2.0 0.00 0.00 0.00 95 1019.9
20260901111649 71 93 0.0 2.0 0.00 0.00 0.00 95 1019.7
20260901111144 71 143 1.0 3.0 0.00 0.00 0.00 95 1019.7
20260901110639 71 119 0.0 2.0 0.00 0.00 0.00 95 1019.8
20260901110134 71 32 0.0 2.0 0.00 0.00 0.00 94 1019.6
20260901105631 71 110 1.0 2.0 0.00 0.00 0.00 94 1019.4
20260901105129 72 102 0.0 2.0 0.00 0.00 0.00 94 1019.5
20260901104626 72 164 0.0 2.0 0.00 0.00 0.00 94 1019.7
20260901104121 72 114 0.0 2.0 0.00 0.00 0.00 94 1019.5
20260901103615 72 50 1.0 2.0 0.00 0.00 0.00 94 1019.6
20260901103111 72 89 0.0 3.0 0.00 0.00 0.00 94 1019.5
20260901102611 72 89 0.0 2.0 0.00 0.00 0.00 94 1019.7
20260901102111 72 142 0.0 1.0 0.00 0.00 0.00 94 1019.4
20260901101607 72 107 0.0 1.0 0.00 0.00 0.00 93 1019.3
20260901101106 72 128 2.0 2.0 0.00 0.00 0.00 93 1019.4
20260901100606 72 93 0.0 2.0 0.00 0.00 0.00 93 1019.3
20260901100101 72 124 0.0 2.0 0.00 0.00 0.00 93 1019.3
20260901095558 73 128 0.0 2.0 0.00 0.00 0.00 93 1019.1
20260901095056 73 103 0.0 1.0 0.00 0.00 0.00 93 1019.4
20260901094552 73 144 2.0 2.0 0.00 0.00 0.00 92 1019.5
20260901094051 73 140 0.0 2.0 0.00 0.00 0.00 92 1019.1
20260901093546 73 160 2.0 2.0 0.00 0.00 0.00 92 1019.4
20260901093040 73 131 0.0 2.0 0.00 0.00 0.00 93 1019.3
20260901092536 73 62 0.0 2.0 0.00 0.00 0.00 93 1019.2
20260901092032 73 118 2.0 2.0 0.00 0.00 0.00 93 1019.3
20260901091527 73 112 1.0 2.0 0.00 0.00 0.00 93 1019.3
20260901091022 73 135 0.0 1.0 0.00 0.00 0.00 92 1019.1
20260901090521 73 117 0.0 1.0 0.00 0.00 0.00 92 1019.0
20260901090017 73 142 0.0 2.0 0.00 0.00 0.00 92 1019.1
20260901085512 73 129 1.0 2.0 0.00 0.00 0.00 92 1019.0
20260901085009 73 129 0.0 2.0 0.00 0.00 0.00 92 1019.0
20260901084504 73 80 1.0 2.0 0.00 0.00 0.00 91 1018.7
20260901084000 73 154 0.0 1.0 0.00 0.00 0.00 91 1018.8
20260901083455 73 154 0.0 2.0 0.00 0.00 0.00 91 1018.8
20260901082953 73 120 3.0 3.0 0.00 0.00 0.00 91 1018.6
20260901082448 74 89 0.0 2.0 0.00 0.00 0.00 90 1018.7
20260901081943 74 142 1.0 2.0 0.00 0.00 0.00 90 1018.7
20260901081438 74 129 0.0 2.0 0.00 0.00 0.00 90 1018.8
20260901080932 74 124 0.0 2.0 0.00 0.00 0.00 89 1018.8
20260901080427 75 109 0.0 1.0 0.00 0.00 0.00 89 1018.6
20260901075926 75 153 1.0 2.0 0.00 0.00 0.00 89 1018.7
20260901075422 75 62 0.0 1.0 0.00 0.00 0.00 89 1018.6
20260901074916 75 11 1.0 1.0 0.00 0.00 0.00 89 1018.7
20260901074411 75 83 0.0 1.0 0.00 0.00 0.00 88 1018.9
20260901073906 75 169 0.0 2.0 0.00 0.00 0.00 88 1018.7
20260901073402 75 139 0.0 2.0 0.00 0.00 0.00 88 1018.6
20260901072858 76 235 0.0 1.0 0.00 0.00 0.00 87 1018.5
20260901072357 75 242 0.0 2.0 0.00 0.00 0.00 87 1018.4
20260901071853 75 203 0.0 1.0 0.00 0.00 0.00 89 1018.5
20260901071351 75 149 1.0 2.0 0.00 0.00 0.00 89 1018.6
20260901070850 75 19 0.0 2.0 0.00 0.00 0.00 88 1018.6
20260901070346 75 29 1.0 1.0 0.00 0.00 0.00 88 1018.7
20260901065845 75 160 0.0 2.0 0.00 0.00 0.00 87 1018.5
20260901065340 75 159 1.0 2.0 0.00 0.00 0.00 88 1018.6
20260901064836 75 143 0.0 1.0 0.00 0.00 0.00 87 1018.9
20260901064332 76 69 1.0 2.0 0.00 0.00 0.00 87 1018.7
20260901063829 76 164 0.0 2.0 0.00 0.00 0.00 87 1018.9
20260901063325 76 123 0.0 1.0 0.00 0.00 0.00 85 1019.0
20260901062821 76 154 0.0 1.0 0.00 0.00 0.00 85 1018.8
20260901062317 77 154 0.0 2.0 0.00 0.00 0.00 84 1018.7
20260901061812 77 113 1.0 2.0 0.00 0.00 0.00 85 1018.6
20260901061307 77 89 1.0 1.0 0.00 0.00 0.00 84 1018.8
20260901060802 77 150 0.0 2.0 0.00 0.00 0.00 83 1018.7
20260901060258 77 135 0.0 3.0 0.00 0.00 0.00 82 1018.8
20260901055752 78 164 1.0 3.0 0.00 0.00 0.00 81 1018.8
20260901055249 77 147 0.0 1.0 0.00 0.00 0.00 81 1018.7
20260901054746 77 117 0.0 2.0 0.00 0.00 0.00 82 1018.9
20260901054242 77 147 0.0 2.0 0.00 0.00 0.00 82 1018.9
20260901053737 77 117 0.0 1.0 0.00 0.00 0.00 82 1018.6
20260901053232 78 149 0.0 2.0 0.00 0.00 0.00 81 1018.6
20260901052728 78 160 0.0 1.0 0.00 0.00 0.00 80 1018.6
20260901052224 78 151 1.0 2.0 0.00 0.00 0.00 80 1018.8
20260901051722 79 129 0.0 1.0 0.00 0.00 0.00 79 1018.7
20260901051217 79 180 0.0 3.0 0.00 0.00 0.00 79 1018.6
20260901050712 79 142 0.0 1.0 0.00 0.00 0.00 80 1018.6
20260901050207 79 124 0.0 1.0 0.00 0.00 0.00 78 1018.6
20260901045702 79 166 0.0 2.0 0.00 0.00 0.00 78 1018.5
20260901045157 79 284 0.0 2.0 0.00 0.00 0.00 79 1018.5
20260901044652 79 195 0.0 1.0 0.00 0.00 0.00 77 1018.8
20260901044148 80 180 0.0 1.0 0.00 0.00 0.00 77 1018.7
20260901043644 80 187 1.0 2.0 0.00 0.00 0.00 76 1018.8
20260901043140 80 240 0.0 2.0 0.00 0.00 0.00 74 1018.6
20260901042638 80 202 0.0 2.0 0.00 0.00 0.00 76 1018.8
20260901042134 81 89 0.0 2.0 0.00 0.00 0.00 71 1018.8
20260901041630 81 164 0.0 0.0 0.00 0.00 0.00 73 1018.9
20260901041124 82 180 0.0 2.0 0.00 0.00 0.00 72 1018.6
20260901040624 82 205 0.0 1.0 0.00 0.00 0.00 69 1018.7
20260901040123 83 278 2.0 2.0 0.00 0.00 0.00 69 1018.8
20260901035622 83 199 3.0 3.0 0.00 0.00 0.00 68 1018.9
20260901035121 83 160 1.0 3.0 0.00 0.00 0.00 68 1018.8
20260901034615 83 136 0.0 1.0 0.00 0.00 0.00 68 1018.7
20260901034109 84 154 0.0 2.0 0.00 0.00 0.00 69 1018.7
20260901033608 84 269 0.0 1.0 0.00 0.00 0.00 67 1018.7
20260901033103 84 122 0.0 3.0 0.00 0.00 0.00 67 1018.7
20260901032602 84 131 0.0 2.0 0.00 0.00 0.00 68 1018.7
20260901032057 83 169 0.0 2.0 0.00 0.00 0.00 69 1018.8
20260901031552 84 154 0.0 2.0 0.00 0.00 0.00 70 1018.6
20260901031048 83 166 0.0 0.0 0.00 0.00 0.00 69 1018.6
20260901030548 84 303 1.0 2.0 0.00 0.00 0.00 68 1018.4
20260901030043 83 180 0.0 2.0 0.00 0.00 0.00 68 1018.5
20260901025542 84 247 1.0 3.0 0.00 0.00 0.00 69 1018.5
20260901025037 84 180 0.0 1.0 0.00 0.00 0.00 68 1018.6
20260901024532 85 205 0.0 3.0 0.00 0.00 0.00 68 1018.6
20260901024030 85 119 0.0 2.0 0.00 0.00 0.00 66 1018.4
20260901023524 85 242 0.0 3.0 0.00 0.00 0.00 65 1018.5
20260901023020 85 150 2.0 3.0 0.00 0.00 0.00 65 1018.5
20260901022515 85 157 3.0 3.0 0.00 0.00 0.00 66 1018.5
20260901022010 85 173 0.0 2.0 0.00 0.00 0.00 67 1018.5
20260901021506 84 199 0.0 5.0 0.00 0.00 0.00 68 1018.5
20260901021001 83 153 1.0 3.0 0.00 0.00 0.00 71 1018.3
20260901020456 82 180 0.0 2.0 0.00 0.00 0.00 73 1018.0
20260901015954 82 186 0.0 2.0 0.00 0.00 0.00 72 1018.1
20260901015451 82 142 0.0 1.0 0.00 0.00 0.00 73 1018.4
20260901014951 82 170 2.0 2.0 0.00 0.00 0.00 72 1018.0
20260901014447 82 154 0.0 2.0 0.00 0.00 0.00 72 1018.0
20260901013942 82 173 0.0 1.0 0.00 0.00 0.00 73 1017.8
20260901013438 83 137 1.0 1.0 0.00 0.00 0.00 73 1017.9
20260901012934 83 198 0.0 1.0 0.00 0.00 0.00 73 1017.9
20260901012428 83 154 0.0 1.0 0.00 0.00 0.00 71 1017.7
20260901011923 84 230 0.0 1.0 0.00 0.00 0.00 70 1017.7
20260901011420 84 122 0.0 2.0 0.00 0.00 0.00 69 1017.7
20260901010917 84 108 0.0 1.0 0.00 0.00 0.00 71 1017.7
20260901010413 84 141 0.0 2.0 0.00 0.00 0.00 70 1017.7
20260901005911 85 164 0.0 2.0 0.00 0.00 0.00 70 1017.7
20260901005407 86 154 0.0 1.0 0.00 0.00 0.00 68 1017.6
20260901004902 85 124 0.0 1.0 0.00 0.00 0.00 68 1017.6
20260901004401 87 117 0.0 2.0 0.00 0.00 0.00 66 1017.6
20260901003856 87 113 0.0 1.0 0.00 0.00 0.00 65 1017.5
20260901003351 87 154 0.0 1.0 0.00 0.00 0.00 64 1017.4
20260901002849 87 218 0.0 1.0 0.00 0.00 0.00 64 1017.3
20260901002349 88 235 0.0 0.0 0.00 0.00 0.00 62 1017.3
20260901001844 89 235 0.0 0.0 0.00 0.00 0.00 61 1017.4
20260901001339 90 89 0.0 1.0 0.00 0.00 0.00 60 1017.3
20260901000835 91 257 0.0 1.0 0.00 0.00 0.00 57 1017.3
20260901000330 91 104 0.0 2.0 0.00 0.00 0.00 56 1017.4
20260831235828 92 305 0.0 1.0 0.00 0.00 0.00 55 1017.4
20260831235324 92 307 0.0 1.0 0.00 0.00 0.00 54 1017.6
20260831234824 94 229 0.0 1.0 0.00 0.00 0.00 54 1017.3
20260831234319 94 260 0.0 1.0 0.00 0.00 0.00 51 1017.3
20260831233814 95 37 0.0 1.0 0.00 0.00 0.00 49 1017.2
20260831233310 95 206 0.0 2.0 0.00 0.00 0.00 48 1017.5
20260831232805 95 284 0.0 3.0 0.00 0.00 0.00 46 1017.5
20260831232305 95 297 1.0 2.0 0.00 0.00 0.00 45 1017.6
20260831231756 96 199 0.0 2.0 0.00 0.00 0.00 45 1017.4
20260831231253 96 209 0.0 2.0 0.00 0.00 0.00 45 1017.5
20260831230748 97 228 0.0 2.0 0.00 0.00 0.00 44 1017.4
20260831230243 97 269 0.0 2.0 0.00 0.00 0.00 44 1017.4
20260831225742 97 315 0.0 4.0 0.00 0.00 0.00 45 1017.3
20260831225237 98 258 0.0 4.0 0.00 0.00 0.00 43 1017.3
20260831224732 100 240 0.0 3.0 0.00 0.00 0.00 41 1017.5
20260831224228 100 264 1.0 3.0 0.00 0.00 0.00 41 1017.3
20260831223723 102 252 1.0 3.0 0.00 0.00 0.00 39 1017.1
20260831223219 100 126 1.0 5.0 0.00 0.00 0.00 41 1017.2
20260831222715 100 263 3.0 5.0 0.00 0.00 0.00 39 1017.4
20260831222211 100 247 5.0 8.0 0.00 0.00 0.00 39 1017.3
20260831221706 101 267 2.0 4.0 0.00 0.00 0.00 39 1017.3
20260831221201 100 259 2.0 5.0 0.00 0.00 0.00 40 1017.4
20260831220656 102 234 2.0 5.0 0.00 0.00 0.00 40 1017.5
20260831220151 102 263 1.0 5.0 0.00 0.00 0.00 40 1017.4
20260831215646 101 309 0.0 4.0 0.00 0.00 0.00 40 1017.6
20260831215142 103 352 1.0 3.0 0.00 0.00 0.00 37 1017.5
20260831214639 101 284 2.0 3.0 0.00 0.00 0.00 40 1017.4
20260831214135 101 265 4.0 5.0 0.00 0.00 0.00 43 1017.5
20260831213632 99 167 2.0 5.0 0.00 0.00 0.00 43 1017.4
20260831213126 100 291 2.0 2.0 0.00 0.00 0.00 40 1017.5
20260831212623 100 185 3.0 5.0 0.00 0.00 0.00 40 1017.4
20260831212119 100 256 2.0 4.0 0.00 0.00 0.00 40 1017.3
20260831211612 102 113 3.0 8.0 0.00 0.00 0.00 37 1017.4
20260831211112 103 236 1.0 4.0 0.00 0.00 0.00 36 1017.3
20260831210607 105 254 2.0 3.0 0.00 0.00 0.00 37 1017.3
20260831210103 104 210 2.0 3.0 0.00 0.00 0.00 37 1017.6
20260831205602 107 163 0.0 3.0 0.00 0.00 0.00 38 1017.6
20260831205058 102 252 0.0 3.0 0.00 0.00 0.00 41 1017.6
20260831204553 100 311 1.0 3.0 0.00 0.00 0.00 42 1017.8
20260831204051 101 265 0.0 6.0 0.00 0.00 0.00 42 1017.6
20260831203546 103 276 3.0 4.0 0.00 0.00 0.00 40 1017.6
20260831203046 102 99 0.0 5.0 0.00 0.00 0.00 39 1017.7
20260831202544 103 159 3.0 5.0 0.00 0.00 0.00 39 1017.9
20260831202039 103 239 0.0 5.0 0.00 0.00 0.00 40 1017.7